Location: Unspecified
(0.0000°N, 0.0000°E)
Time: 22:40:31
(UTC+00:00)

BlueWalker 3 - Visible Passes

Search period start: 02 March 2024 00:00
Search period end: 12 March 2024 00:00
Orbit: 485 x 499 km, 53.2° (Epoch: 01 March)

Date Brightness Start Highest point End Pass type
(mag) Time Alt. Az. Time Alt. Az. Time Alt. Az.
09 Mar 4.5 19:52:29 10° NNW 19:52:48 12° NNW 19:52:48 12° NNW visible
10 Mar 2.5 19:28:32 10° NNW 19:31:19 40° NNE 19:31:19 40° NNE visible
11 Mar 2.1 19:04:34 10° NNW 19:08:10 45° NE 19:10:00 25° ESE visible
